A/2019 U5

Japanese version
Home page
Updated on August 15, 2020

---------------------------------------------------------------------

* Profile

Discovery Date October 22, 2019
Magnitude 21.16 mag
Discoverer Pan-STARRS 1 telescope (Haleakala)

* Orbital Elements

Epoch 2023 Apr. 6.0 TT = JDT 2460040.5
T 2023 Mar. 29.76005 TT                                 Rudenko
q   3.6239613            (2000.0)            P               Q
z  -0.0004385      Peri.  181.49391     -0.99908034     +0.00769052
 +/-0.0000148      Node     2.63677     -0.02314941     +0.73133328
e   1.0015892      Incl.  113.51999     -0.03609122     -0.68197690
H   10.0
From 148 observations 2019 Oct. 11-2020 Aug. 1, mean residual 0".4.

* Finding Charts

* Magnitudes Graph

        H = 9.5  G = 0.15

---------------------------------------------------------------------

The orbital elements are published on M.P.E.C. 2020-P19.
The charts are made with StellaNavigator Ver.10 (AstroArts).
The magnitudes graphs are made with Comet for Windows.

---------------------------------------------------------------------

Copyright(C) Seiichi Yoshida (comet@aerith.net). All rights reserved.